Simultaneous Nadir Overpasses (SNOs) Predictions

Prediction of SNOs between METOP-B and TERRA Satellite Orbit:

Table of predicted SNOs for the next 14.0 days since TLE Epoch: 11/30/2024
Index Date (METOP-B) Time (METOP-B) Lat,Lon (METOP-B) SZA (METOP-B ) Date (TERRA) Time (TERRA) Lat,Lon (TERRA) SZA (TERRA ) Distance(km) Time Diff (sec)
1 12/02/2024 04:08:02 -78.32, -56.33 79.62 12/02/2024 04:09:16 -78.22, -55.94 79.69 13.72 74
2 12/02/2024 04:58:09 79.54, 119.01 101.89 12/02/2024 04:58:05 79.53, 118.97 101.89 0.91 4
3 12/04/2024 18:37:34 -79.39, 93.01 77.97 12/04/2024 18:38:16 -79.39, 92.95 77.97 1.23 42
4 12/04/2024 19:28:08 79.59, -98.06 102.31 12/04/2024 19:27:31 79.60, -98.01 102.31 1.08 37
5 12/07/2024 09:07:32 -79.44,-124.17 77.62 12/07/2024 09:07:40 -79.44,-124.09 77.61 1.81 8
6 12/07/2024 09:58:03 79.73, 45.59 102.79 12/07/2024 09:56:53 79.72, 45.47 102.76 2.65 70
7 12/09/2024 22:46:55 79.28,-150.16 102.43 12/09/2024 22:47:49 79.29,-150.13 102.44 0.84 54
8 12/09/2024 23:37:28 -79.57, 19.34 77.21 12/09/2024 23:37:02 -79.56, 19.31 77.22 0.78 26
9 12/12/2024 13:16:51 79.40, -6.79 102.77 12/12/2024 13:17:10 79.40, -6.84 102.77 1.20 19



Historial Predications of SNOs between METOP-B and TERRA
